Погода в Уемском

Россия / Архангельская область     64°28′33″N   40°51′44″E
темп.,
°C
ветер,
м/с
пор.,
м/с
влажн.,
%
обл.,
%
осадки,
мм/ч
давл.,
гПа
погр.,
м
13 мая, чт
чт1300:00+15вюв23654 0.0 102142
03:00+13ююз22690 0.0 102111
06:00+17ю24580 0.0 1019119
09:00+23ююз36390 0.0 1018659
12:00+26юз46300 0.0 10171926
15:00+27юз45250 0.0 10162446
18:00+26зюз253062 0.0 10152500
21:00+20св22467 0.0 101527
14 мая, пт
пт1400:00+17ююв115688 0.0 101411
03:00+15ююв226642 0.0 101414
06:00+18ююв126120 0.0 1012111
09:00+23ююв344449 0.0 1011959
12:00+20ю3658100 0.4 1011827
15:00+21юз5752100 0.5 10111792
18:00+18сз476436 0.1 1012591
21:00+15с1476100 0.1 1013196
15 мая, сб
сб1500:00+13ююз118426 0.0 101311
03:00+12ю00885 0.0 101310
06:00+15ююв127327 0.0 1013218
09:00+18ююв244497 0.0 1012928
12:00+21ююз3537100 0.0 10112207
15:00+15ссз4661100 0.0 1012419
18:00+12с3889100 0.4 1011276
21:00+12ссв249099 0.6 1010181
16 мая, вс
вс1600:00+11ссз259190 0.1 1010195
03:00+10с2592100 0.1 1010234
06:00+10ссв3689100 0.0 1010291
09:00+11св3479100 0.0 1010609
12:00+13св3472100 0.0 1011682
15:00+14всв3465100 0.0 1012915
18:00+13св3565100 0.0 1012812
21:00+10св3769100 0.0 1014347
17 мая, пн
пн1700:00+9св2670100 0.0 1014275
03:00+8св2474100 0.0 1016139
06:00+10всв2368100 0.0 1016227
09:00+14всв225887 0.0 1017659
12:00+17всв224762 0.0 10171318
15:00+18в333967 0.0 10171885
18:00+17в2545100 0.0 1017289
21:00+15в3851100 0.0 1018262